Simultaneous Nadir Overpasses (SNOs) Predictions

Prediction of SNOs between AQUA and METOP-B Satellite Orbit:

Table of predicted SNOs for the next 14.0 days since TLE Epoch: 7/22/2016
Index Date (AQUA) Time (AQUA) Lat,Lon (AQUA) SZA (AQUA ) Date (METOP-B) Time (METOP-B) Lat,Lon (METOP-B) SZA (METOP-B ) Distance(km) Time Diff (sec)
1 07/24/2016 18:54:25 -73.73, 70.80 125.86 07/24/2016 18:53:13 -73.72, 70.87 125.86 2.52 72
2 07/24/2016 19:43:53 73.77,-121.64 54.19 07/24/2016 19:43:52 73.76,-121.70 54.19 2.24 1
3 07/24/2016 20:33:20 -73.83, 45.86 125.74 07/24/2016 20:34:32 -73.85, 45.85 125.73 2.47 72
4 07/27/2016 14:28:40 -73.70, 137.31 125.27 07/27/2016 14:27:38 -73.72, 137.28 125.23 2.93 62
5 07/27/2016 15:18:09 73.79, -55.26 54.84 07/27/2016 15:18:16 73.80, -55.19 54.85 2.48 7
6 07/27/2016 16:07:41 -74.11, 111.67 124.81 07/27/2016 16:08:51 -74.15, 112.98 124.83 39.94 70
7 07/30/2016 10:02:55 -73.72,-156.31 124.58 07/30/2016 10:02:02 -73.72,-156.32 124.57 0.21 53
8 07/30/2016 10:52:23 73.77, 11.22 55.49 07/30/2016 10:52:40 73.79, 11.20 55.51 2.96 17
9 07/30/2016 11:42:03 -74.49, 177.21 123.72 07/30/2016 11:43:08 -74.49,-179.74 123.85 90.79 65
10 08/02/2016 05:37:10 -73.70, -89.83 123.89 08/02/2016 05:36:27 -73.71, -89.92 123.86 3.34 43
11 08/02/2016 06:26:39 73.81, 77.57 56.24 08/02/2016 06:27:05 73.78, 77.58 56.21 2.38 26
12 08/05/2016 01:11:26 -73.74, -23.48 123.11 08/05/2016 01:10:51 -73.76, -23.42 123.08 2.91 35
13 08/05/2016 02:00:54 73.80, 144.03 56.97 08/05/2016 02:01:29 73.82, 144.07 56.99 3.05 35




NCC Satellite Simultaneous Nadir Overpasses (SNOs) Prediction Service
